Location: Clatteringshaws Loch
(55.0508°N, 4.2860°W)
Time: 18:24:35
(UTC+01:00)

Daily predictions for brighter satellites

Satellite Brightness Start Highest point End
(mag) Time Altitude Azimuth Time Altitude Azimuth Time Altitude Azimuth
ARGOS 3.6 21:03:50 10° SE 21:08:58 48° ENE 21:14:07 10° N
Cosmos 1328 Rocket 3.8 21:04:47 10° S 21:09:06 53° E 21:13:27 10° NNE
Cosmos 44 3.3 21:05:13 10° SW 21:09:50 87° NW 21:14:47 10° NE
Cosmos 2341 Rocket 4.1 21:04:25 10° S 21:10:40 63° E 21:16:54 10° NNE
ATLAS CENTAUR R/B 2.2 21:10:17 10° S 21:13:20 24° ESE 21:16:32 10° ENE
Cosmos 1470 Rocket 3.6 21:10:10 10° NNW 21:14:35 87° E 21:19:00 10° SSE
NOSS 0 Rocket 4.4 21:09:01 10° S 21:14:38 38° ESE 21:20:18 10° NE
Lacrosse 4 Rocket 4.1 21:11:23 10° WNW 21:14:39 21° NNW 21:18:00 10° NNE
Cosmos 2218 Rocket 4.5 21:09:59 10° SSE 21:15:55 43° E 21:21:54 10° NNE
Resurs 01 Rocket 2.3 21:13:41 10° S 21:18:04 59° WSW 21:22:29 10° NNW
Cosmos 2297 3.8 21:20:03 10° NNW 21:25:44 69° NE 21:31:25 10° SE
Cosmos 2360 Rocket 3.1 21:20:29 10° SW 21:26:01 56° NW 21:31:35 10° NNE
Cosmos 2366 rocket 4.4 21:21:48 10° SSE 21:27:41 46° E 21:33:39 10° NNE
Cosmos 1980 4.1 21:22:36 10° S 21:27:52 40° ESE 21:33:09 10° NE
Cosmos 407 Rocket 3.5 21:23:07 10° NNW 21:28:17 69° ENE 21:33:23 10° SE
SL-08 RB Rocket 4.0 21:24:35 10° SE 21:28:54 49° ENE 21:33:14 10° N
BREEZE-M DEB (TANK) 3.2 21:24:09 10° WSW 21:31:10 41° S 21:33:43 11° ESE
SPOT 1/Viking Rocket 4.4 21:27:16 10° SE 21:32:00 36° ENE 21:36:45 10° N
Cosmos 2369 Rocket 3.5 21:27:31 10° NNW 21:32:33 30° NE 21:37:33 10° E
Cosmos 1939 Rocket 4.4 21:30:01 10° SSW 21:33:37 35° W 21:37:17 10° NNW
ERS-1 Rocket 3.2 21:30:30 10° SE 21:35:24 55° ENE 21:40:19 10° N
Cosmos 44 Rocket 3.5 21:31:41 10° SW 21:36:32 79° NW 21:41:33 10° NE
Cosmos 1339 Rocket 4.5 21:30:27 10° N 21:36:33 71° ENE 21:42:40 10° SSE
SL-8 Rocket 4.1 21:30:37 10° S 21:36:50 65° E 21:43:03 10° NNE
Cosmos 2333 Rocket 2.2 21:32:28 10° SSW 21:38:03 66° ESE 21:43:42 10° NE
Cosmos 1869 3.7 21:35:07 10° SSE 21:38:56 44° E 21:42:47 10° NNE
Aureole 2 4.2 21:36:31 10° S 21:39:23 48° ESE 21:42:17 10° NE
H-2A R/B 2.1 21:35:03 10° SSE 21:40:01 62° ENE 21:44:55 10° N
Meteor 1-27 4.3 21:34:32 10° SSW 21:40:17 89° WNW 21:45:57 10° NNE
SL-16 R/B 4.4 21:36:28 10° W 21:41:25 30° NW 21:46:23 10° NNE
Cosmos 1933 Rocket 4.1 21:38:50 10° NNW 21:43:12 62° W 21:47:30 10° S
COSMOS 2428 2.9 21:37:33 10° SW 21:43:18 81° NW 21:49:04 10° NNE
USA 234 3.4 21:37:21 10° E 21:43:55 81° N 21:50:30 10° WNW
Cosmos 2333 4.4 21:39:24 10° SW 21:45:04 77° NW 21:50:43 10° NNE
Cosmos 676 Rocket 4.1 21:42:49 10° NNW 21:48:06 66° ENE 21:52:41 13° SE
Cosmos 1408 3.5 21:46:12 10° NNW 21:49:46 50° W 21:53:20 10° S
MetOp-A 4.2 21:48:00 10° SSE 21:53:23 86° WSW 21:58:47 10° NNW
Cosmos 2219 Rocket 2.2 21:47:47 10° SSW 21:53:28 89° WNW 21:59:09 10° NNE
Cosmos 1151 Rocket 3.0 21:50:39 10° SSW 21:54:54 87° W 21:59:15 10° NNE
Cosmos 2237 Rocket 2.3 21:49:42 10° SSW 21:55:10 56° ESE 22:00:42 10° NE
Cosmos 2278 Rocket 3.4 21:52:15 10° NW 21:57:30 39° WSW 22:02:43 10° S
Helios 1B rocket 3.9 21:54:52 10° NE 21:58:01 21° E 21:59:43 16° ESE
Landsat 7 4.5 21:54:28 15° SE 21:58:07 42° ENE 22:02:37 10° N
Cosmos 1455 3.4 21:57:22 10° SSW 22:01:05 45° WNW 22:04:50 10° N
ATLAS 5 CENTAUR R/B 2.8 21:56:55 10° NW 22:02:17 53° NNE 22:08:00 12° ESE
Cosmos 1441 Rocket 3.9 22:00:24 16° SSE 22:02:50 33° E 22:06:15 10° NNE
Cosmos 1707 Rocket 4.4 22:01:41 16° SE 22:04:30 32° E 22:08:22 10° NNE
Cosmos 1869 Rocket 3.5 22:01:11 10° N 22:05:36 81° ENE 22:09:22 14° SSE
Cosmos 2056 Rocket 3.9 22:00:52 10° S 22:06:01 46° ESE 22:11:09 10° NE
NOSS 2-1 (C) 3.6 22:03:15 10° WSW 22:07:03 77° NW 22:11:45 10° NE
NOSS 2-1 (D) 3.6 22:04:14 10° WSW 22:08:02 75° NW 22:12:44 10° NE
Cosmos 864 Rocket 4.4 22:02:16 10° S 22:08:23 78° E 22:14:34 10° NNE
ATLAS 2AS CENTAUR R/B 4.4 22:02:18 10° WNW 22:08:56 30° WSW 22:15:10 10° S
Cosmos 2098 Rocket 2.7 22:07:42 10° S 22:12:03 80° E 22:15:34 10° NNE
Terra 2.5 22:12:46 18° SE 22:15:53 42° ENE 22:20:23 10° N
Cosmos 1733 Rocket 3.8 22:12:57 10° N 22:17:07 38° ENE 22:19:33 21° SE
Cosmos 1850 Rocket 4.4 22:13:33 10° NNW 22:18:39 52° NE 22:22:06 20° SE
Cosmos 1862 3.4 22:15:19 10° NNW 22:19:23 78° W 22:22:36 16° S
RESURS DK-1 3.5 22:16:04 10° NNW 22:19:54 34° NE 22:22:38 16° E
Helios 1A 3.0 22:18:48 17° SSE 22:22:01 85° WSW 22:26:15 10° NNW
CARTOSAT-1 4.0 22:20:03 21° SE 22:22:37 47° ENE 22:26:47 10° N
Cosmos 1624 Rocket 4.0 22:17:51 10° S 22:22:59 62° ESE 22:28:07 10° NNE
Cosmos 1140 Rocket 3.5 22:18:05 10° NNW 22:23:20 84° WSW 22:27:02 19° SSE
Cosmos 1437 Rocket 3.2 22:21:47 10° N 22:25:31 46° ENE 22:27:25 25° SE
Cosmos 1741 Rocket 4.3 22:20:59 10° NNW 22:26:17 58° ENE 22:29:43 21° SE
Lacrosse 5 1.8 22:24:18 10° WNW 22:29:24 88° S 22:32:59 20° ESE
Cosmos 1461 4.3 22:27:06 10° NW 22:31:39 40° NNE 22:35:27 14° E
Cosmos 2228 Rocket 4.4 22:27:44 10° SW 22:31:54 41° WNW 22:36:07 10° N
Cosmos 405 Rocket 2.7 22:29:41 19° S 22:32:18 62° E 22:36:14 10° NNE
Cosmos 1954 Rocket 4.1 22:27:11 10° NNW 22:32:25 73° WSW 22:36:02 20° SSE
Cosmos 405 4.3 22:29:23 10° NNW 22:32:39 35° W 22:35:36 12° SSW
SPOT 5 2.7 22:30:53 19° SSE 22:34:07 82° WSW 22:38:34 10° NNW
SeaSat 1 4.2 22:30:29 10° E 22:34:21 24° NNE 22:38:14 10° NNW
GEOS 3 Rocket 4.2 22:29:52 10° ENE 22:34:50 37° SE 22:39:42 10° S
Cosmos 1000 Rocket 4.5 22:29:22 10° N 22:35:37 85° E 22:40:21 18° SSE
NOSS 2-1 (E) 4.2 22:34:43 10° WSW 22:38:36 56° NNW 22:43:29 10° NE
SL-19 R/B 4.3 22:35:05 19° SSE 22:39:08 85° WSW 22:44:51 10° NNW
USA 245 3.6 22:41:25 22° SW 22:42:25 30° WSW 22:44:32 10° NW
Cosmos 2242 Rocket 4.4 22:42:18 27° SE 22:43:42 33° E 22:47:40 10° NNE
SL-16 R/B 2.2 22:39:40 10° SSW 22:45:12 58° ESE 22:50:46 10° NE
Cosmos 1943 Rocket 2.6 22:41:16 10° NNW 22:46:41 52° NE 22:50:03 23° ESE
IGS 5A 3.4 22:46:06 29° SSE 22:48:10 78° ENE 22:52:23 10° NNW
CZ-2C R/B 3.3 22:46:01 26° SE 22:48:24 51° ENE 22:53:08 10° N
Cosmos 1821 Rocket 4.1 22:43:47 18° S 22:48:30 63° E 22:54:42 10° NNE
SL-8 R/B 4.5 22:44:44 10° SW 22:48:53 30° SSE 22:49:26 29° SSE
USA 267 3.9 22:43:19 10° ENE 22:49:01 31° SE 22:54:42 10° SSW
ARGOS 4.4 22:44:29 10° SSW 22:49:24 36° W 22:54:21 10° NNW
ATLAS CENTAUR R/B 1.7 22:48:14 10° WSW 22:51:59 62° NW 22:56:00 10° NE
NOSS 3-3 (A) 4.4 22:46:48 10° WSW 22:53:06 73° NW 23:00:13 10° NE
NOSS 3-3 (C) 4.4 22:46:54 10° WSW 22:53:13 74° NW 23:00:19 10° NE
Lacrosse 4 Rocket 4.3 22:52:20 10° NW 22:54:54 15° N 22:57:29 10° NE
Cosmos 1633 2.6 22:52:49 10° N 22:56:25 59° ENE 22:57:22 41° SE
DMSP B5D2-2 4.0 22:52:25 10° NNE 22:57:43 77° ESE 23:01:41 18° S
Cosmos 2123 Rocket 4.0 22:51:34 10° N 22:57:56 76° ENE 23:01:43 26° SSE
NOSS 0 Rocket 4.5 22:54:46 10° SW 23:00:53 61° NW 23:07:06 10° NNE
Meteor 1-4 Rocket 2.5 22:58:34 10° N 23:02:04 64° ENE 23:02:52 47° SE
Meteor 1-14 Rocket 4.1 22:57:45 10° NNW 23:03:21 82° ENE 23:06:17 29° SSE
Meteor 2-10 Rocket 4.5 23:01:42 10° SSW 23:07:21 55° WNW 23:13:06 10° N
Cosmos 1933 3.4 23:07:02 26° SSW 23:09:16 81° WNW 23:13:23 10° N
Cosmos 1420 Rocket 4.2 23:07:26 28° S 23:09:59 53° ESE 23:15:10 10° NE
Cosmos 1908 Rocket 3.9 23:05:53 10° N 23:10:15 54° ENE 23:11:44 36° SE
SPOT 1/Viking Rocket 4.3 23:07:45 19° SSW 23:11:19 48° W 23:16:24 10° NNW
Cosmos 1603 4.3 23:10:48 31° SE 23:12:17 36° ESE 23:17:23 10° NE
Cosmos 1943 4.3 23:16:01 25° ESE 23:16:32 25° ESE 23:21:06 10° NE
Cosmos 2369 Rocket 2.2 23:11:31 10° NW 23:17:16 85° WSW 23:19:56 33° SSE
Meteor 1-29 2.8 23:14:06 10° NNE 23:17:32 87° ESE 23:18:17 52° S
Cosmos 2263 4.2 23:11:53 10° NNW 23:17:33 78° NE 23:20:12 33° SE
H-2A R/B 3.7 23:16:58 19° E 23:18:49 25° ENE 23:22:33 10° N
H-2A R/B 3.8 23:15:45 10° SSW 23:19:51 25° W 23:23:56 10° NW
Cosmos 1535 Rocket 4.5 23:15:37 22° S 23:19:52 83° E 23:26:19 10° NNE
Cosmos 1862 Rocket 3.6 23:19:13 41° SSE 23:20:34 63° E 23:24:56 10° NNE
Cosmos 2333 Rocket 3.8 23:17:33 10° WSW 23:22:45 36° NW 23:27:58 10° NNE
Cosmos 389 Rocket 2.7 23:23:43 10° N 23:27:07 50° ENE 23:27:22 49° E
USA 234 3.3 23:23:40 29° SE 23:27:09 64° SSW 23:33:41 10° WNW
Meteor 1-25 Rocket 4.4 23:23:23 10° NNW 23:29:10 72° W 23:32:00 31° S
ALOS 2 3.9 23:28:46 24° E 23:30:12 30° ENE 23:34:02 10° N
CZ-4C R/B 2.6 23:29:25 36° SSE 23:30:37 40° ESE 23:36:21 10° NE
Cosmos 1782 3.2 23:30:41 42° ESE 23:30:57 43° E 23:34:45 10° NNE
CZ-2C R/B 3.0 23:28:20 10° NNE 23:33:28 45° E 23:34:58 36° SE
Helios 1B rocket 3.0 23:29:34 10° N 23:33:39 58° WNW 23:36:04 23° SW
Cosmos 921 Rocket 3.2 23:34:45 47° SE 23:35:14 49° ESE 23:39:25 10° NNE
Cosmos 2344 3.7 23:28:33 10° SSW 23:36:02 63° SE 23:44:52 10° NE
Cosmos 1536 4.2 23:33:30 10° N 23:36:56 26° ENE 23:37:40 25° E
Cosmos 1606 2.7 23:37:03 56° SE 23:37:27 60° E 23:41:20 10° NNE
Cosmos 2219 Rocket 4.3 23:33:17 10° W 23:38:10 29° NW 23:43:03 10° NNE
Cosmos 1605 Rocket 4.0 23:35:38 32° S 23:38:46 72° E 23:45:10 10° NNE
Cosmos 2237 Rocket 3.5 23:34:11 10° WSW 23:39:30 40° NW 23:44:50 10° NNE
Meteor 1-26 Rocket 4.1 23:36:38 28° SSW 23:39:41 87° WNW 23:45:19 10° NNE
SAR-Lupe-4 3.7 23:42:04 56° SW 23:42:31 64° WSW 23:46:07 10° NNW
SAR-Lupe-1 4.1 23:45:08 61° SW 23:45:32 67° WSW 23:49:08 10° NNW
ATLAS 5 CENTAUR R/B 2.5 23:41:35 10° NW 23:47:13 61° SW 23:49:32 38° SSE
Cosmos 1452 Rocket 3.6 23:45:07 20° SW 23:48:51 76° WNW 23:54:08 10° NNE
Cosmos 1447 Rocket 4.4 23:43:05 10° NNW 23:49:16 87° W 23:51:56 37° S
Iridium 37 4.3 23:49:37 74° NW 23:49:37 74° NW 23:52:30 10° N
Meteor 2-17 Rocket 4.4 23:46:26 29° SSW 23:49:49 86° W 23:56:00 10° NNE
Terra 3.0 23:51:39 24° SW 23:53:44 35° W 23:58:08 10° NNW
Cosmos 1733 Rocket 4.5 23:50:57 10° NNW 23:54:51 31° W 23:56:40 23° SW
